Skip Page Navigation
NASA JPL Caltech
NASA Logo - Jet Propulsion Laboratory + View the NASA Portal
+ Center for Near-Earth Object Studies
JPL Home Earth Solar System Stars & Galaxies Technology
JPL Solar System Dynamics
BODIES ORBITS EPHEMERIDES TOOLS PHYSICAL DATA DISCOVERY FAQ SITE MAP
JPL Small-Body Database Browser
Search: [ help ]  
344633 (2003 OL14)
Classification: Main-belt Asteroid          SPK-ID: 2344633
Ephemeris | Orbit Diagram | Orbital Elements | Mission Design | Physical Parameters | Discovery Circumstances ]

[ hide orbit diagram ]

For accurate long-term ephemerides, please instead use our Horizons system.This orbit viewer was implemented using two-body methods, and hence should not be used for determining accurate long-term trajectories (over several years or decades) or planetary encounter circumstances.


Orbital Elements at Epoch 2459000.5 (2020-May-31.0) TDB
Reference: JPL 10 (heliocentric ecliptic J2000)
 Element Value Uncertainty (1-sigma)   Units 
e .2481174856980899 6.5552e-08  
a 2.647047338649446 2.2808e-08 au
q 1.990268608459925 1.8016e-07 au
i 15.11486603081417 6.3744e-06 deg
node 252.3497425177327 2.7065e-05 deg
peri 92.39630962028737 3.0879e-05 deg
M 308.9709457543991 1.5008e-05 deg
tp 2459223.474915291538
(2021-Jan-08.97491529)
6.7492e-05 TDB
period 1573.044429132717
4.31
2.0331e-05
5.566e-08
d
yr
n .2288555830546265 2.9579e-09 deg/d
Q 3.303826068838966 2.8467e-08 au
  Orbit Determination Parameters
   # obs. used (total)      195  
   data-arc span      7587 days (20.77 yr)  
   first obs. used      1999-10-14  
   last obs. used      2020-07-22  
   planetary ephem.      DE431  
   SB-pert. ephem.      SB431-N16  
   condition code      0  
   norm. resid. RMS      .57974  
   source      ORB  
   producer      Otto Matic  
   solution date      2020-Nov-11 17:02:15  

Additional Information
 Earth MOID = 1.0511 au 
 Jupiter MOID = 2.38115 au 
 T_jup = 3.300 
[ show covariance matrix ]

Ephemeris | Orbit Diagram | Orbital Elements | Mission Design | Physical Parameters | Discovery Circumstances ]

Physical Parameter Table
Parameter Symbol Value Units Sigma Reference Notes
absolute magnitude H 16.3   n/a MPO434168  

344633 (2003 OL14)          Discovered 2003-Jul-22 by NEAT at Palomar
Reference: 20121128/Numbers.arcLast Updated: 2012-12-03
Ephemeris | Orbit Diagram | Orbital Elements | Mission Design | Physical Parameters | Discovery Circumstances ]
ABOUT SSD CREDITS/AWARDS PRIVACY/COPYRIGHT GLOSSARY LINKS
FirstGov 2021-Jan-27 11:56 UT
(server date/time)  
NASA Home Page
Site Manager:   Ryan S. Park
Webmaster  Alan B. Chamberlin